TimeCDT,TemperatureF,Dew PointF,Humidity,Sea Level PressureIn,VisibilityMPH,Wind Direction,Wind SpeedMPH,Gust SpeedMPH,PrecipitationIn,Events,Conditions,WindDirDegrees,DateUTC
12:53 AM,78.1,72.0,81,30.05,10.0,Calm,Calm,-,N/A,,Clear,0,2013-08-11 05:53:00
1:53 AM,75.9,73.0,91,30.05,10.0,South,4.6,-,N/A,,Clear,180,2013-08-11 06:53:00
2:53 AM,75.9,73.0,91,30.06,10.0,Calm,Calm,-,N/A,,Clear,0,2013-08-11 07:53:00
3:53 AM,75.9,73.0,91,30.06,10.0,Calm,Calm,-,N/A,,Clear,0,2013-08-11 08:53:00
4:53 AM,73.9,72.0,93,30.07,10.0,Calm,Calm,-,N/A,,Clear,0,2013-08-11 09:53:00
5:53 AM,73.9,73.0,97,30.08,7.0,Calm,Calm,-,N/A,,Clear,0,2013-08-11 10:53:00
6:53 AM,73.9,72.0,93,30.10,9.0,Calm,Calm,-,N/A,,Clear,0,2013-08-11 11:53:00
7:53 AM,77.0,73.9,90,30.11,10.0,South,3.5,-,N/A,,Clear,180,2013-08-11 12:53:00
8:53 AM,82.0,73.0,74,30.11,10.0,Variable,3.5,-,N/A,,Clear,0,2013-08-11 13:53:00
9:53 AM,86.0,73.9,67,30.11,10.0,South,4.6,-,N/A,,Clear,180,2013-08-11 14:53:00
10:53 AM,89.1,73.0,59,30.11,10.0,Variable,4.6,-,N/A,,Partly Cloudy,0,2013-08-11 15:53:00
11:53 AM,89.1,73.0,59,30.10,10.0,Calm,Calm,-,N/A,,Clear,0,2013-08-11 16:53:00
12:53 PM,93.9,70.0,46,30.08,10.0,Variable,3.5,-,N/A,,Clear,0,2013-08-11 17:53:00
1:53 PM,93.0,70.0,47,30.06,10.0,Calm,Calm,-,N/A,,Clear,0,2013-08-11 18:53:00
2:53 PM,95.0,72.0,47,30.04,10.0,SW,9.2,-,N/A,,Clear,230,2013-08-11 19:53:00
3:53 PM,93.9,71.1,47,30.02,10.0,South,5.8,-,N/A,,Scattered Clouds,180,2013-08-11 20:53:00
4:44 PM,96.8,69.8,41,30.01,10.0,SSE,5.8,-,N/A,Thunderstorm,Partly Cloudy,160,2013-08-11 21:44:00
4:53 PM,96.1,71.1,44,30.01,10.0,South,9.2,-,N/A,,Partly Cloudy,170,2013-08-11 21:53:00
5:02 PM,93.2,71.6,49,30.01,10.0,NE,13.8,23.0,N/A,Thunderstorm,Scattered Clouds,40,2013-08-11 22:02:00
5:53 PM,86.0,71.1,61,30.04,10.0,SW,10.4,23.0,N/A,Thunderstorm,Thunderstorm,230,2013-08-11 22:53:00
6:14 PM,82.4,69.8,66,30.04,10.0,NW,10.4,-,N/A,Thunderstorm,Thunderstorm,310,2013-08-11 23:14:00
6:37 PM,82.4,71.6,70,30.04,10.0,NW,6.9,-,N/A,,Clear,320,2013-08-11 23:37:00
6:53 PM,82.0,71.1,69,30.03,10.0,North,3.5,-,N/A,,Clear,10,2013-08-11 23:53:00
7:53 PM,81.0,72.0,74,30.04,10.0,NE,3.5,-,N/A,,Mostly Cloudy,50,2013-08-12 00:53:00
8:53 PM,82.0,72.0,71,30.06,10.0,SE,4.6,-,N/A,,Overcast,130,2013-08-12 01:53:00
9:53 PM,81.0,73.9,79,30.06,10.0,SSE,4.6,-,N/A,,Clear,160,2013-08-12 02:53:00
10:53 PM,80.1,75.0,85,30.07,10.0,Calm,Calm,-,N/A,,Clear,0,2013-08-12 03:53:00
11:53 PM,78.1,73.9,87,30.07,10.0,South,4.6,-,N/A,,Clear,180,2013-08-12 04:53:00